www.pogodaiklimat.ru

Погода и климат >> Архив погоды >> Беларусь >> Слуцк


ПОГОДА в Слуцке

  • Прогноз погоды в Слуцке
  • Монитор погоды в Слуцке

АРХИВ ПОГОДЫ в Слуцке

Время (UTC), дата Ветер
(напр.,м/с)
 
Видим.   Явления Облачность Т
(С)
Тd
(С)
f
(%)
Тe
(С)
Тes
(С)
Комфортность P
(гПа)
Po
(гПа)
Тmin
(С)
Tmax
(С)
R
(мм)
R24
(мм)
S
(см)
03 16.09 З 7-10
{11}
14 км 9/0
[Ac trans Ci sp]
+15.3 +8.4 63 +14 +14 1007.5 988.4
06 16.09 З 6
{10}
18 км 3/1 600 м
[Sc Ac trans]
+14.8 +8.8 67 +13 +14 1008.1 989.0 +13.1
09 16.09 СЗ 9-14
{15}
20 км 8/8 600 м
[Sc]
+17.4 +5.1 44 +16 +16 1008.4 989.4
12 16.09 З 9-13
{17}
17 км 10/9 1000 м
[Sc Ci sp]
+17.9 +3.9 39 +17 +17 1008.3 989.3
15 16.09 З 7-10
{15}
17 км 9/3 1000 м
[Sc Cs]
+16.3 +5.2 48 +15 +15 1007.8 988.8
18 16.09 З 6
{13}
14 км 9/5 600 м
[Sc Ci sp]
+13.4 +5.6 59 +11 +11 1008.1 988.8 +19.6
21 16.09 З 3 12 км 9/9 600 м
[Sc]
+8.7 +5.2 79 +6 +6 1008.0 988.5
00 17.09 З 4 12 км 6/0
[Ci sp]
+7.8 +5.5 85 +4 +4 1007.7 988.0
03 17.09 З 3 12 км 5/0
[Ac cast Ci fib]
+5.9 +4.6 91 +3 +3 1007.4 987.6
06 17.09 З 7
{10}
15 км 5/0
[Ci]
+8.7 +5.9 83 +4 +5 1007.5 988.0 +5.4
09 17.09 З 7-11
{11}
17 км 8/8 600 м
[Cu med, cong]
+13.0 +5.0 58 +11 +11 1007.1 987.8
12 17.09 З 9-13
{13}
19 км 8/8 600 м
[Cu Sc Ci sp]
+15.9 +2.0 39 +14 +14 1005.7 986.7
15 17.09 З 8-11
{13}
13 км в посл. час ливневой дождь 9/5 600 м
[Cb cap Ac und]
+13.8 +5.1 56 +11 +11 1004.3 985.1
18 17.09 ЮЗ 4
{12}
13 км {ливн. осадки} 9/5 600 м
[Sc Ac und]
+11.4 +6.4 71 +9 +9 1002.6 983.3 +17.0 0.0
21 17.09 З 3
{11}
9000 м слаб. ливневой дождь 9/9 630 м
[Cb cap]
+8.8 +7.7 93 +6 +6 1001.2 981.9
00 18.09 З 5 15 км {ливн. осадки} 10/10 360 м
[St]
+7.4 +7.0 97 +3 +3 1000.3 980.8
03 18.09 З 7
{10}
4000 м дождь 10/0 570 м
[As op]
+6.5 +6.2 98 +1 +1 999.6 980.1
06 18.09 З 6
{10}
10 км слаб. дождь 10/10 270 м
[Frnb Ns]
+6.6 +6.2 97 +2 +2 1001.1 981.6 +5.8 8
09 18.09 З 7-10
{11}
12 км в посл. час ливневой дождь 9/8 600 м
[Cb cap Ac trans]
+7.8 +6.5 91 +3 +3 1003.2 983.6
12 18.09 СЗ 9-14
{15}
20 км {ливн. осадки, дождь} 9/6 600 м
[Cb cap Ac trans]
+9.1 +5.6 79 +5 +5 1005.1 985.7
15 18.09 СЗ 5
{14}
17 км {ливн. осадки} 9/3 600 м
[Sc Ac trans Ci sp]
+10.1 +7.3 83 +7 +7 1007.7 988.3
18 18.09 З 3 13 км {ливн. осадки} 8/8 600 м
[Sc]
+6.3 +5.9 97 +3 +3 1010.5 990.8 +11.4 2
21 18.09 З 4 11 км в посл. час ливневой дождь 8/6 600 м
[Cb cap Ac und]
+8.2 +8.0 99 +5 +5 1011.6 992.1
00 19.09 З 4 13 км {ливн. осадки} 8/8 600 м
[Sc]
+8.0 +7.6 97 +5 +5 1012.8 993.2
03 19.09 З 4 12 км 9/9 570 м
[Sc]
+8.1 +7.8 98 +5 +5 1013.6 994.0
06 19.09 З 4 14 км 9/9 570 м
[Sc]
+8.6 +8.3 98 +5 +5 1014.7 995.1 +6.3 0.5
09 19.09 З 4 10 км в посл. час ливневой дождь 9/9 600 м
[Cb cap]
+10.1 +8.1 87 +7 +8 1015.9 996.4
12 19.09 З 6-10
{10}
15 км {ливн. осадки} 9/5 600 м
[Sc Ci sp]
+12.3 +6.2 66 +10 +11 1016.4 997.0
15 19.09 СЗ 4
{10}
18 км 8/3 600 м
[Sc diur, vesp Ci sp]
+12.6 +4.4 57 +11 +11 1016.7 997.3
18 19.09 З 3 14 км 3/3 600 м
[Sc]
+7.3 +5.1 86 +4 +4 1018.1 998.2 +13.7 2
21 19.09 З 2 12 км 3/0
[Ci fib]
+4.9 +4.7 99 +2 +2 1018.3 998.3
00 20.09 З 3 10 км ясно +3.3 +2.8 97 -1 -1 1018.4 998.2
03 20.09 З 2 10 км 9/0
[Ac trans Ci sp]
+4.1 +3.6 97 +1 +1 1018.0 997.8
06 20.09 СЗ 4 10 км в посл. час дождь 10/10 300 м
[St]
+6.5 +6.3 99 +3 +3 1017.8 997.9 +2.4 0.3
09 20.09 СЗ 7-12
{10}
17 км {морось} 9/9 700 м
[Sc]
+8.0 +4.2 77 +4 +4 1018.5 998.6
12 20.09 СЗ 8-12
{13}
20 км в посл. час ливневой дождь {морось} 9/9 300 м
[Cb cap]
+7.7 +6.2 90 +3 +3 1019.2 999.3
15 20.09 С 6-11
{14}
20 км {ливн. осадки} 9/9 300 м
[Cb cap]
+7.4 +2.7 72 +3 +3 1019.9 1000.0
18 20.09 С 1
{11}
15 км {ливн. осадки} 5/0
[Ci fib]
+3.5 +2.8 95 +2 +2 1022.0 1001.8 +10.3 1
21 20.09 СЗ 1 12 км 3/0
[Ci fib]
+1.8 +0.8 93 -0 -0 1022.7 1002.4
00 21.09 З 1 12 км 6/0
[Ci fib]
+1.3 -0.2 90 -1 -1 1022.7 1002.4
03 21.09 ЮЗ 2 12 км 9/0
[Cs]
+1.4 +0.4 93 -2 -2 1022.2 1001.9
06 21.09 ЮЗ 3 15 км 9/0
[Ac lent]
+4.4 +3.1 91 +1 +1 1021.4 1001.4 +0.4
09 21.09 ЮЗ 5 11 км слаб. дождь 10/0
[As op]
+8.0 +5.0 81 +4 +5 1019.6 999.8
12 21.09 З 6 7000 м дождь 10/0 240 м
[As op]
+8.6 +8.4 99 +4 +5 1018.0 998.3
15 21.09 З 6
{10}
7000 м слаб. дождь 10/0 210 м
[As op]
+10.0 +9.8 99 +6 +6 1016.0 996.5
18 21.09 З 6
{10}
10 км {дождь, морось} 10/10 240 м
[St]
+11.7 +11.1 96 +9 +9 1014.9 995.5 +11.7 2
21 21.09 З 6
{10}
12 км 10/10 210 м
[St]
+12.3 +12.1 99 +9 +9 1014.3 994.9
00 22.09 СЗ 5
{10}
12 км 5/5 750 м
[Sc]
+11.5 +10.3 92 +9 +9 1014.1 994.6
03 22.09 СЗ 6
{10}
13 км 9/9 840 м
[Sc]
+11.6 +10.0 90 +9 +9 1014.5 995.0
06 22.09 СЗ 6 14 км 8/8 1000 м
[Sc]
+11.2 +9.8 91 +8 +8 1015.3 995.8 +10.2
09 22.09 З 8-11
{12}
14 км 9/3 600 м
[Sc Ac As]
+14.4 +11.1 81 +12 +12 1014.8 995.6
12 22.09 СЗ 8-11
{13}
18 км 6/6 600 м
[Cu Sc]
+18.0 +10.5 62 +17 +18 1013.2 994.2
15 22.09 З 7-11
{13}
16 км 6/3 600 м
[Cu Sc Ac cast]
+16.6 +10.4 67 +15 +15 1012.1 993.0
18 22.09 СВ 4-10
{12}
13 км 9/9 800 м
[Sc]
+8.4 +6.2 86 +5 +5 1015.6 996.0 +18.6
21 22.09 В 3
{10}
10 км слаб. дождь 10/0 420 м
[As op]
+5.8 +5.4 97 +2 +2 1018.2 998.2
00 23.09 СВ 1 12 км {дождь} 9/9 540 м
[Sc]
+5.5 +5.0 97 +4 +4 1019.9 999.9

 

Местоположение метеостанции Слуцк (Минская область, Беларусь): широта 53.03 долгота 27.55 высота над уровнем моря 162 м.

В архиве по умолчанию представлена погода в Слуцке за последнюю неделю. Архивные данные за месяц целиком и за предыдущие месяцы, начиная с января 2011 года, Вы можете получить, выбрав интересующий диапазон дат из раскрывающегося списка и нажав кнопку "Ввод!".


*Определитесь, кто Вы:
робот инопланетянин человек

Внимание! Время в таблицах - всемирное. Для получения местного времени необходимо прибавить поправку, которая равна 3 ч.

Смотрите также архив погоды в соседних городах и на ближайших метеорологических станциях:

Погода в Марьиной Горке (Минская область, Беларусь) (61 км)
Погода в Столбцах (Минская область, Беларусь) (74 км)
Погода в Ганцевичах (Брестская область, Беларусь) (81 км)
Погода в Житковичах (Гомельская область, Беларусь) (93 км)
Погода в Октябре (Гомельская область, Беларусь) (99 км)
Погода в Полесской (Брестская область, Беларусь) (99 км)
Погода в Минске (город Минск, Беларусь) (104 км)
Погода в Барановичах (Брестская область, Беларусь) (106 км)
Погода в Бобруйске (Могилевская область, Беларусь) (107 км)
Погода в Кличеве (Могилевская область, Беларусь) (129 км)

Пояснения к столбцам:

Ветер - указаны скорость ветра в м/с - средняя за 10 мин, порывы в срок и между сроками (в фигурных скобках) и направление, откуда дует ветер: С - северный, СВ - северо-восточный, В - восточный, ЮВ - юго-восточный, Ю - южный, ЮЗ - юго-западный, З - западный, СЗ - северо-западный.
Видимость - горизонтальная дальность видимости в метрах или километрах. При видимости от 1 до 10 км при отсутствии осадков обычно наблюдается дымка, при ухудшении видимости до 1 км и менее - туман. В сухую погоду видимость может ухудшаться дымом, пылью или мглою.
Явления - указаны атмосферные явления, наблюдавшиеся в срок или в последний час перед сроком; фигурными скобками обозначены явления, наблюдавшиеся между сроками (за 1-3 часа до срока); квадратными скобками обозначены град или гололедные отложения с указанием их диаметра в мм.
Облачность - указаны через наклонную черту общая и нижняя облачность в баллах и высота нижней границы облаков в метрах; квадратными скобками обозначены формы облаков: Ci - перистые, Cs - перисто-слоистые, Cc - перисто-кучевые, Ac - высококучевые, As - высокослоистые, Sc - слоисто-кучевые, Ns - слоисто-дождевые, Cu - кучевые, Cb - кучево-дождевые. Подробнее классификацию облаков см. в Атласе облаков (PDF).
T - Температура воздуха - температура, измеренная на высоте 2 м над землей.
Td - Температура точки росы - температура, при понижении до которой содержащийся в воздухе водяной пар достигнет насыщения.
f - Относительная влажность воздуха - влажноcть воздуха, измеренная на высоте 2 м над землей.
Te - Эффективная температура - температура, которую ощущает одетый по сезону человек в тени. Характеристика душности погоды. При расчете учитывается влияние влажности воздуха и скорости ветра на теплоощущения человека.
Tes - Эффективная температура на солнце - температура, которую ощущает человек, с поправкой на солнечный нагрев. Характеристика знойности погоды. Зависит от высоты солнца над горизонтом, облачности и скорости ветра. Ночью, в пасмурную погоду, а также при ветре 12 м/с и более поправка равна нулю.
P - Атмосферное давление - приведенное к уровню моря атмосферное давление.
Po - Атмосферное давление - измеренное на уровне метеостанции атмосферное давление.
Tmin - Минимальная температура - минимум температуры воздуха на высоте 2 м над землей.
Tmax - Максимальная температура - максимум температуры воздуха на высоте 2 м над землей.
R - Количество осадков - Количество выпавших осадков за период времени, мм. При наведении курсора мыши на число - период времени, за который выпало указанное количество осадков.
R24 - Количество осадков - Количество выпавших осадков за 24 часа, мм.
S - Снежный покров - Высота снежного покрова, см. При наведении курсора мыши на число - состояние снежного покрова и степень покрытия местности в баллах.